QPF
0.00 0.00 0.01 0.01 0.02 0.02 0.02 0.03 0.02 0.03 0.05 0.07 0.08 0.09 0.06 0.04 0.02 0.02 0.00 0.00 0.00 0.00 0.00 0.00 0.00 0.00 0.00 0.00 0.00 0.00 0.00 0.00 0.00 0.00 0.00 0.00 0.00 0.00 0.00 0.01 0.00 0.01 0.01 0.01 0.01 0.01 0.01 0.01 0.01
0.00 0.00 0.01 0.01 0.01 0.01 0.02 0.02 0.02 0.02 0.03 0.04 0.05 0.06 0.04 0.04 0.02 0.01 0.00 0.00 0.00 0.00 0.00 0.00 0.00 0.00 0.00 0.00 0.00 0.00 0.00 0.00 0.00 0.00 0.00 0.00 0.00 0.00 0.00 0.00 0.00 0.01 0.01 0.01 0.01 0.01 0.01 0.01 0.01
0.00 0.00 0.01 0.01 0.01 0.01 0.01 0.01 0.01 0.02 0.02 0.02 0.03 0.06 0.05 0.02 0.01 0.01 0.00 0.00 0.00 0.00 0.00 0.00 0.00 0.00 0.00 0.00 0.00 0.00 0.00 0.00 0.00 0.00 0.00 0.00 0.00 0.00 0.00 0.01 0.01 0.01 0.01 0.01 0.01 0.01 0.01 0.01 0.01
0.00 0.00 0.01 0.01 0.01 0.00 0.01 0.01 0.01 0.02 0.02 0.02 0.02 0.04 0.03 0.02 0.01 0.01 0.00 0.00 0.00 0.00 0.00 0.00 0.00 0.00 0.00 0.00 0.00 0.00 0.00 0.00 0.00 0.00 0.00 0.00 0.00 0.00 0.00 0.01 0.01 0.01 0.01 0.01 0.00 0.01 0.01 0.01 0.02
0.00 0.00 0.01 0.00 0.00 0.00 0.01 0.01 0.01 0.01 0.02 0.02 0.02 0.02 0.02 0.01 0.01 0.01 0.01 0.01 0.01 0.00 0.00 0.00 0.00 0.00 0.00 0.00 0.00 0.00 0.00 0.00 0.00 0.00 0.00 0.00 0.00 0.00 0.01 0.01 0.01 0.01 0.01 0.00 0.01 0.01 0.01 0.01 0.01
0.00 0.00 0.00 0.00 0.00 0.00 0.01 0.01 0.01 0.01 0.01 0.01 0.02 0.03 0.03 0.02 0.03 0.03 0.02 0.02 0.01 0.01 0.00 0.00 0.00 0.00 0.00 0.00 0.00 0.00 0.00 0.00 0.00 0.00 0.00 0.01 0.00 0.00 0.01 0.01 0.01 0.01 0.01 0.01 0.01 0.01 0.01 0.01 0.01
0.00 0.00 0.00 0.00 0.00 0.00 0.00 0.00 0.00 0.01 0.01 0.01 0.01 0.03 0.02 0.04 0.05 0.04 0.04 0.02 0.02 0.02 0.01 0.01 0.01 0.00 0.00 0.01 0.01 0.01 0.01 0.01 0.01 0.01 0.00 0.01 0.01 0.01 0.00 0.00 0.00 0.00 0.00 0.00 0.00 0.01 0.01 0.01 0.02
0.00 0.00 0.00 0.00 0.00 0.00 0.00 0.00 0.00 0.00 0.00 0.00 0.01 0.02 0.02 0.06 0.13 0.11 0.08 0.07 0.06 0.05 0.03 0.02 0.01 0.00 0.00 0.01 0.01 0.01 0.01 0.01 0.01 0.01 0.00 0.01 0.01 0.01 0.01 0.00 0.01 0.01 0.00 0.00 0.00 0.01 0.01 0.01 0.02
0.00 0.00 0.00 0.00 0.00 0.00 0.00 0.00 0.00 0.00 0.01 0.02 0.02 0.02 0.03 0.06 0.16 0.22 0.19 0.14 0.11 0.10 0.08 0.06 0.04 0.01 0.01 0.01 0.01 0.01 0.01 0.01 0.01 0.01 0.01 0.01 0.00 0.00 0.00 0.01 0.02 0.02 0.01 0.00 0.01 0.01 0.01 0.01 0.01
0.00 0.00 0.00 0.00 0.00 0.00 0.00 0.00 0.00 0.01 0.02 0.03 0.04 0.05 0.04 0.05 0.08 0.13 0.14 0.18 0.16 0.14 0.08 0.08 0.07 0.03 0.02 0.01 0.00 0.00 0.01 0.01 0.01 0.01 0.01 0.01 0.00 0.00 0.00 0.01 0.03 0.03 0.02 0.01 0.02 0.02 0.02 0.01 0.01
0.00 0.00 0.00 0.00 0.00 0.00 0.00 0.00 0.00 0.01 0.02 0.03 0.05 0.08 0.05 0.05 0.06 0.10 0.11 0.15 0.17 0.16 0.11 0.10 0.09 0.06 0.03 0.01 0.00 0.00 0.00 0.01 0.01 0.01 0.01 0.00 0.00 0.00 0.00 0.01 0.02 0.03 0.03 0.02 0.02 0.02 0.01 0.01 0.01
0.00 0.00 0.00 0.00 0.00 0.00 0.00 0.00 0.00 0.00 0.01 0.02 0.05 0.09 0.07 0.06 0.06 0.06 0.09 0.12 0.17 0.22 0.18 0.11 0.09 0.07 0.04 0.02 0.00 0.00 0.00 0.00 0.00 0.00 0.01 0.00 0.00 0.00 0.01 0.02 0.03 0.03 0.02 0.02 0.02 0.01 0.01 0.02 0.02
0.00 0.00 0.00 0.00 0.00 0.00 0.00 0.00 0.00 0.00 0.00 0.01 0.04 0.07 0.08 0.09 0.10 0.13 0.14 0.12 0.15 0.24 0.24 0.18 0.12 0.08 0.04 0.03 0.02 0.00 0.01 0.01 0.01 0.01 0.01 0.01 0.02 0.02 0.02 0.02 0.02 0.01 0.01 0.02 0.02 0.02 0.02 0.01 0.02
0.00 0.00 0.00 0.00 0.00 0.00 0.00 0.00 0.00 0.00 0.00 0.02 0.06 0.08 0.10 0.16 0.19 0.21 0.22 0.20 0.23 0.21 0.21 0.18 0.15 0.10 0.07 0.05 0.02 0.01 0.01 0.01 0.01 0.01 0.01 0.02 0.03 0.03 0.04 0.04 0.03 0.02 0.02 0.03 0.03 0.03 0.03 0.02 0.03
0.00 0.00 0.00 0.00 0.00 0.00 0.00 0.00 0.00 0.00 0.00 0.01 0.03 0.06 0.11 0.19 0.22 0.20 0.28 0.28 0.28 0.23 0.21 0.16 0.11 0.10 0.08 0.05 0.04 0.02 0.02 0.02 0.02 0.02 0.02 0.03 0.03 0.03 0.04 0.04 0.03 0.03 0.02 0.02 0.02 0.03 0.03 0.02 0.02
0.00 0.00 0.00 0.00 0.00 0.00 0.00 0.00 0.01 0.01 0.01 0.01 0.02 0.04 0.08 0.16 0.18 0.18 0.25 0.28 0.34 0.30 0.27 0.18 0.09 0.07 0.06 0.07 0.05 0.05 0.05 0.04 0.03 0.02 0.03 0.03 0.03 0.03 0.03 0.04 0.04 0.02 0.02 0.02 0.02 0.03 0.04 0.03 0.02
0.00 0.00 0.00 0.00 0.00 0.00 0.00 0.01 0.01 0.01 0.01 0.02 0.02 0.03 0.05 0.09 0.12 0.14 0.21 0.24 0.32 0.34 0.27 0.23 0.13 0.08 0.08 0.07 0.09 0.10 0.08 0.05 0.04 0.04 0.04 0.05 0.05 0.04 0.03 0.02 0.02 0.02 0.02 0.02 0.02 0.02 0.03 0.02 0.02
0.00 0.00 0.00 0.00 0.00 0.00 0.01 0.01 0.01 0.01 0.02 0.04 0.03 0.04 0.05 0.04 0.07 0.11 0.16 0.25 0.36 0.38 0.35 0.28 0.22 0.16 0.13 0.11 0.12 0.12 0.08 0.05 0.05 0.05 0.04 0.03 0.03 0.03 0.02 0.01 0.02 0.02 0.02 0.02 0.01 0.02 0.01 0.01 0.01
0.00 0.00 0.00 0.00 0.00 0.01 0.01 0.01 0.01 0.01 0.01 0.02 0.03 0.05 0.05 0.05 0.08 0.11 0.18 0.27 0.41 0.45 0.47 0.40 0.29 0.23 0.20 0.16 0.12 0.09 0.05 0.04 0.06 0.07 0.06 0.04 0.03 0.03 0.03 0.02 0.02 0.02 0.02 0.01 0.01 0.01 0.01 0.00 0.00
0.00 0.00 0.00 0.00 0.01 0.01 0.01 0.01 0.01 0.01 0.01 0.01 0.01 0.04 0.05 0.05 0.07 0.10 0.20 0.32 0.40 0.39 0.42 0.45 0.36 0.32 0.26 0.21 0.17 0.15 0.11 0.09 0.10 0.08 0.06 0.05 0.03 0.03 0.03 0.02 0.01 0.01 0.01 0.00 0.00 0.00 0.00 0.00 0.00
0.00 0.00 0.00 0.00 0.00 0.00 0.00 0.00 0.01 0.01 0.01 0.00 0.01 0.02 0.03 0.03 0.06 0.11 0.19 0.24 0.33 0.37 0.38 0.38 0.32 0.31 0.30 0.27 0.27 0.24 0.19 0.14 0.11 0.08 0.07 0.05 0.04 0.02 0.02 0.02 0.01 0.01 0.01 0.00 0.00 0.00 0.00 0.00 0.01
0.00 0.00 0.00 0.00 0.00 0.00 0.00 0.00 0.00 0.01 0.01 0.01 0.00 0.01 0.02 0.02 0.04 0.09 0.14 0.16 0.18 0.25 0.30 0.37 0.29 0.26 0.26 0.24 0.22 0.23 0.19 0.13 0.10 0.07 0.07 0.06 0.05 0.04 0.03 0.02 0.01 0.01 0.01 0.00 0.00 0.00 0.00 0.00 0.00
0.00 0.00 0.00 0.00 0.00 0.00 0.00 0.00 0.00 0.00 0.00 0.00 0.00 0.00 0.01 0.01 0.02 0.02 0.04 0.08 0.10 0.12 0.18 0.24 0.24 0.22 0.20 0.19 0.17 0.20 0.21 0.17 0.13 0.10 0.08 0.06 0.04 0.04 0.03 0.02 0.01 0.01 0.01 0.01 0.00 0.00 0.00 0.00 0.00
0.00 0.00 0.00 0.00 0.00 0.00 0.00 0.00 0.00 0.00 0.00 0.00 0.01 0.01 0.01 0.00 0.01 0.01 0.03 0.05 0.08 0.09 0.15 0.20 0.17 0.17 0.15 0.16 0.14 0.13 0.16 0.17 0.15 0.10 0.08 0.05 0.03 0.03 0.02 0.01 0.01 0.01 0.02 0.01 0.01 0.01 0.01 0.01 0.00
0.00 0.00 0.00 0.00 0.00 0.00 0.00 0.00 0.00 0.00 0.00 0.00 0.00 0.01 0.01 0.00 0.00 0.00 0.01 0.03 0.05 0.08 0.10 0.14 0.14 0.14 0.14 0.13 0.10 0.08 0.09 0.10 0.10 0.09 0.05 0.03 0.02 0.01 0.01 0.00 0.01 0.01 0.02 0.02 0.02 0.01 0.01 0.01 0.00
0.00 0.00 0.00 0.00 0.01 0.00 0.00 0.00 0.00 0.00 0.00 0.00 0.01 0.02 0.01 0.00 0.00 0.00 0.01 0.01 0.02 0.06 0.10 0.10 0.10 0.11 0.11 0.10 0.08 0.07 0.06 0.06 0.07 0.07 0.05 0.03 0.02 0.01 0.01 0.01 0.02 0.02 0.02 0.02 0.02 0.01 0.01 0.01 0.00
0.00 0.00 0.00 0.01 0.01 0.00 0.00 0.00 0.00 0.00 0.00 0.00 0.01 0.02 0.01 0.00 0.00 0.00 0.01 0.01 0.01 0.04 0.10 0.08 0.09 0.09 0.08 0.08 0.06 0.06 0.05 0.05 0.06 0.05 0.05 0.03 0.03 0.02 0.02 0.02 0.02 0.01 0.01 0.02 0.01 0.01 0.01 0.00 0.00
0.00 0.00 0.00 0.01 0.01 0.01 0.01 0.00 0.00 0.00 0.00 0.01 0.01 0.01 0.01 0.00 0.00 0.00 0.01 0.01 0.00 0.01 0.05 0.06 0.08 0.09 0.07 0.06 0.06 0.05 0.04 0.04 0.05 0.04 0.03 0.03 0.03 0.03 0.01 0.01 0.01 0.01 0.01 0.01 0.01 0.01 0.01 0.01 0.00
0.00 0.00 0.00 0.00 0.01 0.02 0.01 0.00 0.00 0.01 0.00 0.00 0.00 0.01 0.01 0.01 0.00 0.00 0.00 0.00 0.00 0.00 0.02 0.04 0.06 0.07 0.06 0.05 0.05 0.05 0.04 0.05 0.06 0.05 0.03 0.02 0.02 0.02 0.03 0.02 0.01 0.01 0.01 0.01 0.02 0.02 0.02 0.01 0.01
0.01 0.01 0.00 0.01 0.01 0.02 0.01 0.01 0.01 0.00 0.00 0.00 0.00 0.00 0.00 0.01 0.01 0.00 0.00 0.01 0.01 0.00 0.01 0.03 0.06 0.04 0.04 0.03 0.04 0.04 0.05 0.07 0.07 0.06 0.04 0.03 0.03 0.03 0.04 0.03 0.02 0.02 0.02 0.02 0.02 0.02 0.02 0.01 0.01
MSLP
1009.36 1010.39 1011.45 1012.39 1013.08 1013.45 1013.51 1013.32 1012.98 1012.60 1012.27 1012.05 1011.93 1011.89 1011.86 1011.79 1011.65 1011.43 1011.19 1010.97 1010.84 1010.85 1011.02 1011.34 1011.76 1012.21 1012.65 1013.01 1013.27 1013.45 1013.56 1013.65 1013.76 1013.90 1014.09 1014.32 1014.58 1014.83 1015.06 1015.25 1015.40 1015.51 1015.60 1015.67 1015.73 1015.78 1015.83 1015.87 1015.91
1009.71 1010.84 1011.94 1012.84 1013.43 1013.65 1013.54 1013.16 1012.63 1012.09 1011.63 1011.30 1011.11 1011.01 1010.96 1010.89 1010.78 1010.62 1010.47 1010.36 1010.35 1010.49 1010.79 1011.22 1011.73 1012.26 1012.76 1013.17 1013.48 1013.69 1013.85 1013.98 1014.12 1014.29 1014.49 1014.70 1014.93 1015.14 1015.31 1015.46 1015.58 1015.67 1015.76 1015.84 1015.92 1016.00 1016.07 1016.12 1016.17
1010.14 1011.31 1012.38 1013.19 1013.63 1013.68 1013.39 1012.85 1012.19 1011.54 1011.01 1010.63 1010.41 1010.30 1010.25 1010.20 1010.12 1010.02 1009.94 1009.92 1010.02 1010.26 1010.66 1011.17 1011.75 1012.33 1012.86 1013.30 1013.64 1013.90 1014.09 1014.26 1014.43 1014.61 1014.82 1015.02 1015.21 1015.38 1015.51 1015.62 1015.71 1015.79 1015.88 1015.99 1016.09 1016.19 1016.28 1016.35 1016.41
1010.65 1011.79 1012.76 1013.42 1013.69 1013.57 1013.12 1012.45 1011.71 1011.03 1010.48 1010.11 1009.90 1009.81 1009.78 1009.75 1009.71 1009.66 1009.63 1009.69 1009.86 1010.19 1010.65 1011.21 1011.83 1012.43 1012.97 1013.42 1013.77 1014.05 1014.27 1014.47 1014.67 1014.87 1015.08 1015.28 1015.45 1015.58 1015.69 1015.76 1015.84 1015.92 1016.03 1016.15 1016.27 1016.40 1016.50 1016.59 1016.65
1011.19 1012.24 1013.06 1013.53 1013.61 1013.32 1012.75 1012.01 1011.25 1010.58 1010.08 1009.76 1009.60 1009.55 1009.55 1009.55 1009.53 1009.52 1009.54 1009.64 1009.88 1010.25 1010.75 1011.33 1011.95 1012.55 1013.08 1013.51 1013.86 1014.14 1014.38 1014.61 1014.84 1015.07 1015.30 1015.50 1015.67 1015.79 1015.88 1015.95 1016.02 1016.11 1016.23 1016.37 1016.51 1016.65 1016.77 1016.85 1016.92
1011.71 1012.61 1013.23 1013.50 1013.39 1012.96 1012.30 1011.55 1010.82 1010.22 1009.81 1009.57 1009.49 1009.49 1009.52 1009.54 1009.54 1009.55 1009.60 1009.74 1010.01 1010.41 1010.92 1011.50 1012.10 1012.67 1013.17 1013.58 1013.91 1014.20 1014.45 1014.71 1014.98 1015.24 1015.50 1015.72 1015.90 1016.03 1016.13 1016.20 1016.28 1016.38 1016.51 1016.66 1016.81 1016.95 1017.07 1017.15 1017.22
1012.11 1012.83 1013.23 1013.29 1013.01 1012.48 1011.79 1011.06 1010.41 1009.93 1009.62 1009.49 1009.48 1009.54 1009.60 1009.64 1009.66 1009.68 1009.76 1009.92 1010.21 1010.62 1011.13 1011.69 1012.26 1012.79 1013.24 1013.62 1013.93 1014.22 1014.49 1014.78 1015.09 1015.40 1015.70 1015.96 1016.17 1016.32 1016.44 1016.53 1016.62 1016.72 1016.86 1017.01 1017.16 1017.29 1017.39 1017.46 1017.51
1012.33 1012.84 1013.03 1012.89 1012.48 1011.87 1011.19 1010.53 1009.99 1009.64 1009.46 1009.43 1009.50 1009.61 1009.70 1009.76 1009.79 1009.83 1009.93 1010.12 1010.43 1010.85 1011.35 1011.88 1012.41 1012.89 1013.30 1013.64 1013.94 1014.22 1014.52 1014.85 1015.20 1015.57 1015.91 1016.22 1016.47 1016.65 1016.78 1016.88 1016.98 1017.09 1017.22 1017.37 1017.51 1017.63 1017.71 1017.77 1017.80
1012.33 1012.62 1012.61 1012.31 1011.80 1011.17 1010.52 1009.95 1009.54 1009.32 1009.26 1009.33 1009.47 1009.61 1009.73 1009.81 1009.87 1009.95 1010.08 1010.30 1010.63 1011.06 1011.55 1012.06 1012.54 1012.97 1013.34 1013.65 1013.93 1014.22 1014.54 1014.91 1015.31 1015.73 1016.13 1016.48 1016.76 1016.97 1017.13 1017.24 1017.34 1017.45 1017.57 1017.70 1017.83 1017.93 1018.01 1018.05 1018.07
1012.10 1012.20 1012.02 1011.60 1011.02 1010.39 1009.80 1009.34 1009.05 1008.94 1008.98 1009.13 1009.32 1009.50 1009.65 1009.77 1009.86 1009.98 1010.16 1010.43 1010.80 1011.24 1011.72 1012.21 1012.65 1013.04 1013.37 1013.66 1013.93 1014.23 1014.57 1014.98 1015.42 1015.88 1016.33 1016.72 1017.03 1017.26 1017.43 1017.55 1017.65 1017.75 1017.86 1017.98 1018.09 1018.19 1018.26 1018.30 1018.32
1011.70 1011.65 1011.34 1010.83 1010.23 1009.62 1009.10 1008.72 1008.53 1008.50 1008.62 1008.82 1009.04 1009.26 1009.44 1009.60 1009.75 1009.94 1010.18 1010.51 1010.91 1011.37 1011.85 1012.32 1012.73 1013.09 1013.39 1013.66 1013.93 1014.24 1014.61 1015.04 1015.52 1016.01 1016.49 1016.90 1017.24 1017.49 1017.67 1017.79 1017.89 1017.99 1018.09 1018.21 1018.32 1018.42 1018.50 1018.55 1018.57
1011.25 1011.07 1010.67 1010.12 1009.51 1008.94 1008.47 1008.16 1008.03 1008.06 1008.20 1008.42 1008.67 1008.91 1009.13 1009.34 1009.56 1009.81 1010.13 1010.52 1010.96 1011.44 1011.92 1012.37 1012.77 1013.11 1013.39 1013.66 1013.94 1014.26 1014.65 1015.10 1015.60 1016.11 1016.60 1017.03 1017.38 1017.64 1017.83 1017.97 1018.08 1018.18 1018.29 1018.41 1018.53 1018.64 1018.73 1018.80 1018.84
1010.86 1010.60 1010.15 1009.58 1008.98 1008.44 1008.01 1007.74 1007.62 1007.65 1007.79 1008.00 1008.24 1008.49 1008.74 1009.01 1009.30 1009.63 1010.01 1010.46 1010.94 1011.43 1011.91 1012.36 1012.74 1013.07 1013.36 1013.64 1013.94 1014.28 1014.68 1015.15 1015.65 1016.16 1016.65 1017.09 1017.45 1017.73 1017.94 1018.10 1018.23 1018.35 1018.48 1018.61 1018.75 1018.89 1019.00 1019.09 1019.15
1010.65 1010.35 1009.87 1009.30 1008.73 1008.21 1007.79 1007.52 1007.38 1007.37 1007.46 1007.62 1007.83 1008.08 1008.35 1008.66 1009.01 1009.40 1009.84 1010.32 1010.82 1011.32 1011.80 1012.23 1012.62 1012.97 1013.28 1013.59 1013.93 1014.30 1014.72 1015.19 1015.69 1016.19 1016.67 1017.10 1017.47 1017.77 1018.01 1018.20 1018.37 1018.53 1018.69 1018.86 1019.02 1019.18 1019.32 1019.42 1019.50
1010.67 1010.35 1009.88 1009.33 1008.78 1008.27 1007.85 1007.54 1007.34 1007.25 1007.26 1007.35 1007.51 1007.73 1008.01 1008.34 1008.72 1009.15 1009.62 1010.10 1010.59 1011.08 1011.54 1011.98 1012.39 1012.77 1013.14 1013.51 1013.90 1014.31 1014.76 1015.23 1015.71 1016.19 1016.65 1017.07 1017.45 1017.77 1018.05 1018.30 1018.53 1018.74 1018.95 1019.15 1019.34 1019.52 1019.67 1019.79 1019.87
1010.90 1010.58 1010.14 1009.63 1009.11 1008.61 1008.17 1007.80 1007.52 1007.33 1007.23 1007.22 1007.31 1007.49 1007.75 1008.08 1008.46 1008.89 1009.34 1009.80 1010.26 1010.71 1011.16 1011.59 1012.03 1012.47 1012.92 1013.38 1013.84 1014.32 1014.80 1015.28 1015.74 1016.19 1016.62 1017.02 1017.40 1017.75 1018.08 1018.39 1018.68 1018.96 1019.21 1019.45 1019.67 1019.86 1020.03 1020.16 1020.25
1011.25 1010.96 1010.57 1010.12 1009.65 1009.17 1008.71 1008.29 1007.91 1007.60 1007.38 1007.26 1007.26 1007.37 1007.59 1007.88 1008.24 1008.63 1009.03 1009.42 1009.82 1010.22 1010.64 1011.08 1011.56 1012.08 1012.63 1013.20 1013.77 1014.32 1014.85 1015.33 1015.78 1016.19 1016.57 1016.95 1017.33 1017.70 1018.08 1018.45 1018.81 1019.15 1019.46 1019.73 1019.97 1020.18 1020.35 1020.48 1020.58
1011.58 1011.36 1011.05 1010.70 1010.30 1009.87 1009.40 1008.92 1008.45 1008.03 1007.68 1007.45 1007.34 1007.37 1007.52 1007.76 1008.05 1008.37 1008.69 1009.00 1009.32 1009.65 1010.03 1010.48 1011.02 1011.63 1012.30 1012.99 1013.68 1014.32 1014.90 1015.39 1015.82 1016.19 1016.53 1016.87 1017.24 1017.62 1018.04 1018.47 1018.89 1019.29 1019.64 1019.95 1020.20 1020.41 1020.59 1020.73 1020.85
1011.79 1011.65 1011.48 1011.25 1010.97 1010.60 1010.16 1009.64 1009.09 1008.56 1008.09 1007.74 1007.52 1007.46 1007.53 1007.69 1007.91 1008.14 1008.36 1008.57 1008.79 1009.05 1009.40 1009.86 1010.44 1011.15 1011.94 1012.77 1013.58 1014.32 1014.95 1015.46 1015.87 1016.19 1016.49 1016.79 1017.12 1017.51 1017.95 1018.42 1018.89 1019.34 1019.73 1020.06 1020.32 1020.54 1020.72 1020.88 1021.02
1011.77 1011.78 1011.77 1011.72 1011.58 1011.31 1010.91 1010.39 1009.77 1009.14 1008.55 1008.08 1007.75 1007.59 1007.58 1007.66 1007.80 1007.94 1008.07 1008.18 1008.31 1008.50 1008.81 1009.28 1009.91 1010.71 1011.62 1012.57 1013.49 1014.31 1015.00 1015.53 1015.91 1016.20 1016.44 1016.69 1017.00 1017.38 1017.82 1018.32 1018.82 1019.29 1019.71 1020.05 1020.33 1020.55 1020.73 1020.91 1021.09
1011.53 1011.71 1011.91 1012.06 1012.10 1011.96 1011.63 1011.10 1010.43 1009.70 1009.00 1008.41 1007.98 1007.73 1007.64 1007.65 1007.72 1007.80 1007.85 1007.89 1007.95 1008.08 1008.36 1008.82 1009.49 1010.35 1011.35 1012.40 1013.41 1014.31 1015.04 1015.58 1015.95 1016.20 1016.40 1016.61 1016.87 1017.23 1017.67 1018.17 1018.68 1019.17 1019.60 1019.95 1020.23 1020.45 1020.64 1020.84 1021.06
1011.13 1011.52 1011.95 1012.33 1012.55 1012.55 1012.28 1011.75 1011.03 1010.21 1009.40 1008.69 1008.16 1007.83 1007.68 1007.65 1007.68 1007.72 1007.74 1007.73 1007.75 1007.85 1008.10 1008.55 1009.24 1010.14 1011.18 1012.29 1013.36 1014.31 1015.07 1015.62 1015.98 1016.20 1016.36 1016.52 1016.76 1017.08 1017.51 1018.00 1018.51 1019.00 1019.43 1019.78 1020.06 1020.28 1020.48 1020.69 1020.94
1010.69 1011.30 1011.96 1012.56 1012.96 1013.08 1012.86 1012.32 1011.54 1010.62 1009.70 1008.89 1008.27 1007.87 1007.68 1007.64 1007.68 1007.73 1007.75 1007.74 1007.75 1007.84 1008.07 1008.50 1009.18 1010.07 1011.13 1012.25 1013.34 1014.30 1015.07 1015.62 1015.97 1016.18 1016.31 1016.45 1016.66 1016.96 1017.36 1017.84 1018.34 1018.82 1019.24 1019.58 1019.84 1020.06 1020.27 1020.49 1020.76
1010.35 1011.16 1012.03 1012.81 1013.35 1013.55 1013.36 1012.79 1011.93 1010.91 1009.88 1008.97 1008.28 1007.85 1007.65 1007.63 1007.71 1007.81 1007.88 1007.92 1007.96 1008.05 1008.26 1008.68 1009.32 1010.17 1011.18 1012.27 1013.33 1014.28 1015.04 1015.58 1015.92 1016.12 1016.25 1016.38 1016.56 1016.85 1017.23 1017.69 1018.17 1018.63 1019.04 1019.36 1019.62 1019.83 1020.03 1020.25 1020.53
1010.19 1011.17 1012.19 1013.10 1013.73 1013.96 1013.75 1013.12 1012.17 1011.05 1009.93 1008.94 1008.20 1007.75 1007.58 1007.61 1007.77 1007.96 1008.13 1008.24 1008.33 1008.44 1008.66 1009.03 1009.62 1010.40 1011.33 1012.34 1013.34 1014.23 1014.96 1015.49 1015.82 1016.02 1016.16 1016.28 1016.47 1016.75 1017.11 1017.55 1018.01 1018.45 1018.83 1019.14 1019.38 1019.58 1019.77 1019.98 1020.25
1010.25 1011.33 1012.43 1013.39 1014.03 1014.24 1013.98 1013.27 1012.24 1011.03 1009.83 1008.79 1008.04 1007.61 1007.48 1007.60 1007.86 1008.17 1008.44 1008.65 1008.81 1008.97 1009.18 1009.52 1010.03 1010.71 1011.54 1012.44 1013.34 1014.16 1014.83 1015.33 1015.66 1015.87 1016.01 1016.15 1016.35 1016.62 1016.98 1017.39 1017.83 1018.25 1018.61 1018.91 1019.13 1019.32 1019.49 1019.69 1019.94
1010.47 1011.57 1012.68 1013.60 1014.19 1014.33 1013.98 1013.19 1012.08 1010.81 1009.58 1008.54 1007.80 1007.41 1007.36 1007.58 1007.95 1008.38 1008.77 1009.09 1009.32 1009.52 1009.74 1010.03 1010.47 1011.05 1011.75 1012.53 1013.32 1014.05 1014.66 1015.12 1015.44 1015.65 1015.81 1015.97 1016.17 1016.45 1016.80 1017.20 1017.61 1018.01 1018.35 1018.63 1018.85 1019.03 1019.20 1019.38 1019.61
1010.77 1011.81 1012.83 1013.64 1014.11 1014.14 1013.69 1012.84 1011.68 1010.40 1009.18 1008.18 1007.50 1007.19 1007.23 1007.55 1008.03 1008.57 1009.06 1009.47 1009.78 1010.01 1010.23 1010.50 1010.86 1011.34 1011.93 1012.59 1013.27 1013.90 1014.44 1014.86 1015.16 1015.38 1015.55 1015.73 1015.94 1016.21 1016.55 1016.93 1017.33 1017.71 1018.04 1018.31 1018.53 1018.71 1018.88 1019.06 1019.28
1011.03 1011.93 1012.78 1013.42 1013.73 1013.62 1013.08 1012.18 1011.03 1009.79 1008.65 1007.74 1007.16 1006.95 1007.09 1007.49 1008.06 1008.67 1009.24 1009.72 1010.07 1010.34 1010.57 1010.81 1011.13 1011.53 1012.03 1012.59 1013.16 1013.71 1014.18 1014.56 1014.85 1015.06 1015.24 1015.42 1015.64 1015.91 1016.24 1016.60 1016.98 1017.34 1017.67 1017.94 1018.16 1018.36 1018.54 1018.73 1018.95
1011.15 1011.85 1012.48 1012.90 1013.02 1012.78 1012.17 1011.26 1010.16 1009.02 1008.01 1007.24 1006.79 1006.70 1006.92 1007.39 1008.01 1008.66 1009.27 1009.77 1010.16 1010.45 1010.69 1010.93 1011.22 1011.58 1012.01 1012.50 1013.01 1013.48 1013.91 1014.25 1014.51 1014.72 1014.90 1015.08 1015.30 1015.56 1015.87 1016.22 1016.58 1016.93 1017.24 1017.52 1017.76 1017.97 1018.18 1018.39 1018.62
Thickness
5804 5800 5796 5785 5767 5751 5750 5765 5777 5778 5783 5792 5795 5789 5782 5777 5771 5769 5791 5800 5797 5791 5787 5783 5780 5778 5776 5774 5773 5772 5771 5769 5768 5767 5766 5765 5763 5762 5761 5759 5758 5756 5755 5754 5752 5751 5750 5749 5748
5803 5798 5788 5775 5754 5741 5752 5773 5778 5785 5792 5795 5793 5789 5783 5782 5788 5788 5791 5796 5795 5790 5786 5782 5779 5777 5775 5773 5771 5770 5769 5768 5766 5765 5764 5763 5761 5760 5759 5757 5756 5755 5753 5752 5750 5749 5748 5747 5746
5802 5796 5777 5762 5751 5747 5762 5781 5786 5793 5799 5795 5788 5788 5784 5783 5789 5790 5795 5795 5792 5787 5784 5781 5778 5775 5773 5771 5769 5768 5767 5766 5764 5763 5762 5761 5759 5758 5757 5755 5754 5753 5751 5750 5749 5747 5746 5745 5744
5797 5783 5771 5756 5752 5765 5777 5788 5793 5790 5793 5794 5788 5781 5785 5793 5793 5795 5796 5793 5789 5785 5782 5780 5777 5774 5772 5770 5768 5766 5764 5763 5762 5761 5760 5758 5757 5756 5754 5753 5752 5750 5749 5748 5746 5745 5744 5743 5742
5792 5773 5757 5747 5755 5774 5790 5797 5797 5789 5788 5790 5787 5777 5778 5790 5797 5795 5792 5789 5785 5781 5780 5778 5775 5772 5770 5768 5766 5764 5763 5761 5760 5758 5757 5756 5754 5753 5752 5750 5749 5748 5747 5746 5744 5743 5741 5741 5740
5776 5764 5746 5743 5759 5781 5794 5802 5798 5791 5788 5789 5785 5775 5775 5787 5789 5788 5786 5784 5782 5779 5777 5775 5773 5771 5768 5767 5765 5763 5761 5760 5758 5756 5755 5754 5752 5751 5749 5748 5747 5746 5745 5743 5742 5740 5739 5739 5738
5770 5757 5749 5754 5761 5775 5793 5802 5795 5789 5785 5787 5788 5774 5774 5779 5784 5784 5781 5779 5777 5776 5774 5772 5770 5768 5767 5765 5763 5762 5760 5758 5756 5754 5753 5752 5750 5749 5747 5746 5745 5744 5743 5741 5740 5739 5737 5737 5736
5780 5760 5754 5754 5762 5774 5795 5798 5797 5791 5786 5794 5791 5774 5770 5777 5780 5778 5774 5772 5771 5770 5769 5768 5767 5766 5764 5763 5761 5760 5758 5757 5755 5752 5751 5749 5748 5746 5745 5744 5743 5742 5741 5740 5738 5737 5736 5735 5734
5783 5754 5746 5758 5767 5779 5794 5792 5794 5799 5791 5789 5789 5786 5785 5783 5777 5771 5766 5764 5763 5763 5764 5764 5764 5763 5761 5760 5759 5758 5757 5755 5753 5751 5749 5747 5745 5744 5743 5741 5741 5740 5739 5738 5736 5735 5734 5733 5733
5772 5750 5760 5778 5785 5788 5794 5792 5791 5787 5780 5779 5781 5784 5784 5778 5772 5767 5764 5761 5760 5759 5760 5761 5760 5759 5758 5757 5756 5755 5754 5753 5751 5749 5747 5745 5743 5742 5741 5739 5739 5738 5737 5736 5735 5733 5732 5731 5731
5773 5765 5779 5789 5795 5795 5792 5792 5793 5782 5773 5779 5780 5778 5777 5773 5767 5764 5763 5762 5761 5759 5758 5758 5757 5756 5755 5755 5754 5753 5752 5750 5748 5747 5745 5742 5740 5739 5739 5737 5736 5736 5735 5734 5733 5732 5730 5730 5729
5775 5781 5787 5793 5800 5796 5792 5791 5786 5783 5786 5795 5791 5784 5776 5770 5766 5763 5761 5759 5757 5756 5756 5754 5753 5752 5751 5751 5751 5750 5749 5747 5746 5745 5743 5741 5739 5737 5736 5735 5734 5733 5733 5732 5731 5730 5729 5728 5727
5778 5783 5792 5797 5797 5796 5794 5788 5785 5784 5792 5793 5788 5780 5774 5769 5765 5762 5760 5757 5755 5753 5753 5752 5751 5749 5748 5748 5748 5748 5746 5745 5744 5743 5741 5739 5737 5736 5735 5734 5733 5732 5731 5730 5729 5728 5727 5727 5726
5784 5787 5790 5794 5794 5795 5788 5785 5782 5784 5790 5786 5781 5775 5771 5766 5762 5758 5753 5751 5751 5752 5751 5750 5748 5747 5746 5746 5746 5746 5744 5743 5742 5741 5739 5738 5736 5735 5734 5732 5731 5731 5730 5729 5728 5727 5726 5725 5724
5786 5779 5782 5789 5791 5790 5786 5774 5778 5787 5786 5779 5774 5771 5767 5763 5759 5756 5754 5751 5750 5749 5747 5745 5744 5744 5743 5744 5744 5744 5742 5741 5740 5739 5738 5737 5735 5734 5733 5732 5730 5730 5729 5728 5727 5726 5724 5723 5723
5775 5766 5760 5777 5786 5787 5778 5762 5780 5785 5780 5772 5769 5766 5761 5758 5756 5754 5752 5750 5747 5745 5743 5742 5742 5741 5741 5741 5741 5741 5741 5740 5739 5738 5737 5736 5734 5733 5732 5731 5730 5728 5728 5727 5726 5724 5722 5721 5720
5749 5744 5750 5765 5781 5781 5773 5765 5777 5781 5776 5768 5766 5762 5758 5753 5751 5750 5749 5747 5745 5743 5742 5740 5739 5739 5737 5737 5737 5737 5738 5737 5737 5736 5735 5734 5733 5732 5731 5730 5729 5727 5727 5726 5725 5722 5720 5719 5718
5738 5742 5747 5753 5772 5774 5766 5765 5772 5774 5770 5764 5762 5759 5755 5750 5749 5749 5747 5745 5742 5740 5739 5738 5737 5736 5734 5733 5732 5732 5733 5734 5734 5734 5734 5733 5732 5731 5730 5729 5728 5727 5726 5724 5723 5721 5719 5718 5717
5751 5746 5742 5757 5773 5769 5762 5762 5767 5768 5765 5760 5757 5755 5752 5750 5749 5747 5744 5742 5739 5736 5734 5734 5733 5733 5731 5729 5728 5727 5728 5730 5731 5732 5732 5732 5731 5730 5729 5728 5727 5726 5725 5724 5722 5720 5718 5716 5716
5748 5742 5743 5758 5770 5766 5757 5758 5765 5765 5762 5760 5755 5752 5750 5747 5745 5744 5742 5739 5737 5735 5732 5730 5731 5730 5729 5729 5729 5728 5728 5728 5729 5729 5729 5730 5730 5729 5728 5727 5726 5726 5724 5722 5721 5720 5717 5715 5714
5747 5743 5746 5750 5760 5758 5752 5749 5755 5760 5761 5759 5757 5753 5750 5747 5743 5742 5740 5738 5736 5734 5733 5732 5729 5728 5727 5727 5726 5725 5722 5723 5723 5724 5726 5728 5728 5728 5728 5727 5726 5725 5724 5722 5721 5720 5718 5714 5713
5739 5756 5756 5753 5741 5731 5738 5721 5745 5750 5751 5753 5752 5750 5748 5746 5744 5741 5739 5737 5736 5735 5734 5731 5729 5727 5726 5725 5724 5723 5721 5720 5722 5724 5725 5726 5726 5726 5726 5726 5725 5725 5724 5723 5722 5721 5719 5716 5712
5751 5760 5754 5748 5736 5726 5728 5720 5732 5745 5745 5750 5753 5752 5750 5747 5745 5742 5741 5738 5737 5735 5734 5730 5727 5725 5725 5725 5725 5723 5722 5721 5721 5723 5723 5723 5723 5724 5724 5725 5724 5724 5723 5722 5721 5720 5719 5717 5714
5761 5752 5741 5728 5720 5712 5724 5717 5723 5736 5747 5752 5754 5753 5752 5749 5746 5743 5741 5738 5735 5734 5731 5729 5726 5724 5724 5725 5725 5724 5722 5720 5719 5720 5720 5720 5721 5721 5722 5723 5723 5722 5722 5721 5720 5720 5718 5717 5716
5752 5728 5706 5705 5696 5704 5721 5717 5725 5751 5757 5758 5756 5754 5753 5751 5747 5743 5739 5736 5733 5731 5728 5727 5725 5723 5724 5724 5725 5724 5724 5722 5721 5721 5720 5720 5719 5719 5721 5722 5721 5721 5721 5720 5719 5718 5717 5716 5715
5742 5730 5704 5695 5693 5703 5717 5715 5738 5759 5763 5763 5761 5758 5755 5751 5748 5745 5742 5738 5735 5733 5730 5727 5725 5725 5725 5724 5724 5724 5723 5723 5723 5723 5722 5721 5721 5721 5721 5721 5720 5720 5719 5719 5717 5716 5716 5715 5713
5738 5727 5729 5707 5703 5699 5709 5724 5744 5759 5758 5758 5757 5756 5754 5753 5750 5747 5744 5740 5737 5734 5733 5731 5728 5726 5726 5726 5724 5723 5723 5723 5723 5722 5722 5721 5721 5721 5720 5720 5719 5718 5717 5716 5715 5714 5713 5713 5712
5748 5732 5713 5702 5692 5692 5709 5718 5727 5746 5750 5753 5754 5754 5755 5754 5752 5749 5746 5742 5740 5738 5735 5733 5731 5729 5728 5727 5726 5725 5723 5723 5722 5721 5720 5720 5720 5720 5719 5718 5717 5716 5715 5714 5712 5712 5711 5710 5708
5732 5725 5714 5701 5701 5693 5694 5714 5748 5751 5753 5753 5755 5756 5756 5755 5753 5751 5748 5745 5743 5741 5737 5734 5732 5731 5729 5728 5726 5725 5724 5722 5722 5721 5720 5720 5719 5719 5718 5717 5716 5714 5713 5711 5710 5709 5708 5706 5705
5735 5727 5714 5704 5701 5698 5697 5716 5760 5759 5757 5755 5755 5757 5758 5757 5755 5753 5750 5746 5743 5741 5739 5736 5734 5732 5731 5730 5728 5726 5725 5723 5722 5721 5721 5720 5719 5718 5717 5716 5714 5713 5711 5710 5708 5707 5705 5704 5702